Погода Покровская

Погода Покровская : погода сейчас, прогноз погоды и архив. Всё, что Вы хотите узнать о погоде Покровская!

Хотите узнать прогноз погоды Покровская? Тогда Вам сюда: Погода Покровская

Поиск расширенной информации на нашем сайте:

Другие новости

Новости СМИ2

Главная страница сайта

Новости сайта

03.07.2017

Напоминаем, что на нашем специализированном сайте Метеоцентр.Азия вы можете получить высокодетализированные автоматические прогнозы погоды по пунктам России, СНГ и мира в авиационном формате (включающие направление и скорость ветра, видимость, явления погоды, количество и форму облачности, нижнюю и верхнюю границу облачности).


Погода Покровская - сегодня

Время (UTC), дата Ветер
(°,м/с) 
Видим.   Явления Облачность Т
(°С)
Тd
(°С)
f(%) Тe
(°С)
Pmin
(гПа)
dP
(гПа)
Po
(мм)
O2
(г/м3)
Тmin Tmax R s Состояние
почвы
12 20.09.17 240 (ЮЗ) 20000 м    3/3 1000 м 
[Sc diur, vesp]
-1.7 -2.3 96 -1  1012.1  748  303    +5.5       
15 20.09.17 240 (ЮЗ) 20000 м    4/0 средняя 
[Ac trans]
-1.6 -2.2 96 -1  1012  -0.1  748  303           
18 20.09.17 270 (З) 20000 м    10/5 1000 м верхняя 
[Sc|Cs]
-2.7 -3.4 95 -2  1011.8  -0.2  747  305           
21 20.09.17 270 (З) 20000 м    10/5 1000 м средняя 
[Sc|Ac trans]
-1.4 -1.9 96 -1  1011.6  -0.1  747  303           
00 21.09.17 250 (З) 20000 м    10/3 600 м средняя, верхняя 
[Sc|Ac trans|Ci fib]
+2.1 +0.5 89 +1  1011.8  0.3  748  299  -3.2        влажная 
03 21.09.17 250 (З) 20000 м    10/10 800 м 
[Sc]
+4.2 -0.3 72 +3  1011.8  0.1  748  297           
06 21.09.17 200 (Ю) 20000 м    9/9 1260 м 
[Sc]
+6.3 -1.8 56 +5  1011.6  -0.1  748  295           
09 21.09.17 320 (СЗ) 20000 м    9/9 1440 м 
[Sc]
+6.5 -2.2 54 +6  1011.4  -0.1  748  294           
12 21.09.17 280 (З) 20000 м    3/3 600 м 
[Sc]
+1 -1.9 81 1012.5  0.8  748  301    +7       
15 21.09.17 тихо ()   20000 м    10/0 средняя, верхняя 
[Ac trans|Ci fib]
+0.4 -1.9 85 1013.1  0.4  748  301           
18 21.09.17 260 (З) 20000 м    10/0 средняя 
[Ac und]
+0 -1.4 90 +1  1013.1  748  302           
21 21.09.17 тихо ()   20000 м    10/4 600 м средняя, верхняя 
[Sc|Ac trans|Ci fib]
-0.8 -1.7 94 -1  1013.3  0.2  749  303           
00 22.09.17 270 (З) 20000 м    3/3 1000 м 
[Sc]
+3.5 -3.2 61 +2  1014.6  1.5  750  299  -2.3        влажная 
03 22.09.17 160 (Ю) 20000 м    3/3 600 м 
[Cu Sc]
+7.8 -1.4 52 +8  1014  -0.4  749  294           
06 22.09.17 060 (СВ) 20000 м    3/3 600 м 
[Cu med, cong]
+8.7 -0.1 54 +8  1013.3  -0.6  749  292           
09 22.09.17 050 (СВ) 20000 м    3/0 верхняя 
[Ci fib]
+7.2 +1.3 66 +5  1013.3  -0.1  749  294           
12 22.09.17 050 (СВ) 20000 м    3/0 верхняя 
[Ci fib]
+4.4 +0.2 74 +3  1013.9  0.5  749  297    +9.4       
15 22.09.17 030 (СВ) 20000 м    ясно 
+1.2 -1.7 81 1013.7  -0.4  749  301           
18 22.09.17 040 (СВ) 20000 м    ясно 
+0.4 -1.6 86 -1  1012.4  -0.4  748  301           
21 22.09.17 040 (СВ) 20000 м    ясно 
-0.8 -2 92 -3  1011.3  -1.7  747  302           
00 23.09.17 050 (СВ) 20000 м    6/0 верхняя 
[Ci fib]
+1.8 -0.7 83 1011.1  -0.1  747  299  -0.9        влажная 
03 23.09.17 070 (В) 20000 м    6/0 верхняя 
[Ci fib]
+7.1 -2.8 49 +5  1009.4  -1.4  746  293           
06 23.09.17 070 (В) 20000 м    4/0 верхняя 
[Ci fib]
+9.8 -1.2 46 +8  1007.2  -2.1  744  290           
09 23.09.17 070 (В) 20000 м    8/4 1000 м верхняя 
[Sc|Ci fib]
+9.4 -2.2 44 +8  1006.3  -0.8  744  290           
12 23.09.17 050 (СВ) 20000 м    10/0 средняя 
[Ac trans]
+7.6 -0.4 57 +6  1006.6  0.2  744  292    +10.4       
Время (UTC), дата Ветер
(°,м/с) 
Видим.   Явления Облачность Т
(°С)
Тd
(°С)
f(%) Тe
(°С)
Pmin
(гПа)
dP
(гПа)
Po
(мм)
O2
(г/м3)
Тmin Tmax R s Состояние
почвы

Для получения пояснительной информации подведите курсор к названию столбца.

ПОГОДА Покровская - архив

Всё, что Вы хотите узнать о погоде Покровская - удобно и подробно!

Выберите нужную дату (начиная с 1 января 2015* года) и нажмите кнопку "Найти".
Будут отображены архивные сводки погоды по пункту Покровская, начиная с указанной даты.


Отображать данные в формате CSV (для использования в таблицах Excel)


Внимание! Наш архив погоды предназначен исключительно для личного некоммерческого использования в познавательных целях. Если Вам необходимы официальные справки о состоянии погоды (для производственных, юридических, коммерческих и т.п. целей), обращайтесь в органы Росгидромета.

*Примечание: данная дата относится к архиву по метеостанциям СССР (Россия, СНГ, Балтия).
Архив по метеостанциям Зарубежной Европы и Азии (кроме Китая) хранится 10 дней, по другим регионам земного шара (Китай, Африка, Америка, Австралия, Океания) - 1 день.

Покровская - район местоположения метеостанции


Название, широта, долгота, высота метеостанции:
Покровская 61.5°ш. 129.2°д. 115 м над ур. моря [Российская Федерация]

Дополнительная информация

В oтличие oт бoльшинства пoгoдных сайтoв мы публикуем пoдрoбную метеoинфoрмацию в детальнoм прoфессиoнальнoм фoрмате.

Характеристики температуры и влажнoсти вoздуха измеряются на высoте 2 м в тени вдали oт зданий и деревьев.
Скoрoсть ветра измеряется на высoте 10 м (на урoвне рoста челoвека скoрoсть ветра ниже в 1.5-2 раза). Если метеoстанция нахoдится в гoрoде или в лесу, тo скoрoсть ветра занижена на 2-4 м/с пo сравнению с oткрытым местoм. Скoрoсть ветра над акватoриями крупных рек и oзёр, а также на вершинах хoлмoв на 2-5 м/с выше, чем в oбычных услoвиях.
Атмoсфернoе давление в разных тoчках местнoсти мoжет значительнo oтличаться oт давления на метеoстанции, в зависимoсти oт услoвий рельефа (при пoдъёме на 10 м давление пoнижается примернo на 1 мм рт.ст.).